Presque Isle, ME

8:59 PM EDT on September 24, 2016 (GMT -0400)
Northern Maine Regional At Presque Isle

Weather History for KPQI - March, 2014

Change the Weather History Date:

Friday, March 14, 2014

  Actual Average Record
Temperature  
Mean Temperature 8 °F -  
Max Temperature 26 °F 32 °F 50 °F (1946)
Min Temperature -11 °F 15 °F -20 °F (1926)
Degree Days  
Heating Degree Days 58    
Moisture  
Dew Point 0 °F    
Average Humidity 57    
Maximum Humidity 100    
Minimum Humidity 27    
Precipitation  
Precipitation 0.00 in - - ()
Sea Level Pressure  
Sea Level Pressure 29.84 in    
Wind  
Wind Speed 8 mph (SW)    
Max Wind Speed 17 mph    
Max Gust Speed 23 mph    
Visibility 9 miles    
Events      
Averages and records for this station are not official NWS values.
T = Trace of Precipitation, MM = Missing Value Source: NWS Daily Summary

Daily Weather History Graph

Daily Weather History Graph

Search for Another Location

Airport or City:

Trip Planner

Search our weather history database for the weather conditions in past years. The results will help you decide how hot, cold, wet, or windy it might be!

Date:

Astronomy

Mar. 14, 2014 Rise Set
Actual Time 6:47 AM EDT 6:36 PM EDT
Civil Twilight 6:16 AM EDT 7:06 PM EDT
Nautical Twilight 5:41 AM EDT 7:41 PM EDT
Astronomical Twilight 5:05 AM EDT 8:17 PM EDT
Moon 4:51 PM EDT (3/14) 5:30 AM EDT (3/14)
Length of Visible Light 12h 49m
Length of Day
11h 49m
Waxing Gibbous, 96% of the Moon is Illuminated
Mar 14
Waxing Gibbous
Mar 16
Full
Mar 23
Last Quarter
Mar 30
New
Apr 7
First Quarter

Hourly Weather History & Observations

Time (EDT) Temp. Windchill Dew Point Humidity Pressure Visibility Wind Dir Wind Speed Gust Speed Precip Events Conditions
12:15 AM 5.0 °F -6.9 °F -2.2 °F 72% 29.61 in 10.0 mi West 6.9 mph - N/A   Clear
12:35 AM 3.2 °F -11.3 °F 1.4 °F 92% 29.62 in 10.0 mi West 9.2 mph - N/A   Clear
12:55 AM 3.2 °F -11.3 °F 3.2 °F 100% 29.63 in 10.0 mi West 9.2 mph - N/A   Clear
1:15 AM 3.2 °F -11.3 °F 3.2 °F 100% 29.64 in 10.0 mi West 9.2 mph - N/A   Clear
1:35 AM 3.2 °F -10.3 °F 3.2 °F 100% 29.65 in 10.0 mi West 8.1 mph - N/A   Clear
1:55 AM 3.2 °F -10.3 °F 3.2 °F 100% 29.66 in 10.0 mi West 8.1 mph - N/A   Clear
2:15 AM 3.2 °F -10.3 °F -4.0 °F 72% 29.67 in 10.0 mi West 8.1 mph - N/A   Clear
2:35 AM 1.4 °F -12.5 °F -11.2 °F 56% 29.69 in 10.0 mi West 8.1 mph - N/A   Clear
2:55 AM 3.2 °F -6.2 °F -16.6 °F 39% 29.70 in 10.0 mi West 4.6 mph - N/A   Clear
3:15 AM 1.4 °F -8.3 °F -16.6 °F 43% 29.72 in 10.0 mi West 4.6 mph - N/A   Clear
3:35 AM 1.4 °F -11.3 °F -7.6 °F 66% 29.73 in 10.0 mi West 6.9 mph - N/A   Clear
3:55 AM 1.4 °F -11.3 °F 1.4 °F 100% 29.74 in 10.0 mi West 6.9 mph - N/A   Clear
4:15 AM 1.4 °F -12.5 °F 1.4 °F 100% 29.75 in 10.0 mi West 8.1 mph - N/A   Clear
4:35 AM -0.4 °F -10.4 °F -11.2 °F 60% 29.76 in 10.0 mi West 4.6 mph - N/A   Clear
4:55 AM -0.4 °F -8.3 °F -18.4 °F 43% 29.78 in 10.0 mi West 3.5 mph - N/A   Clear
5:15 AM -2.2 °F -12.5 °F -14.8 °F 55% 29.79 in 10.0 mi West 4.6 mph - N/A   Clear
5:35 AM -9.4 °F -22.7 °F -14.8 °F 77% 29.81 in 10.0 mi WSW 5.8 mph - N/A   Clear
5:55 AM -7.6 °F -18.8 °F -16.6 °F 65% 29.81 in 10.0 mi West 4.6 mph - N/A   Clear
6:15 AM -11.2 °F -23.0 °F -14.8 °F 84% 29.83 in 10.0 mi West 4.6 mph - N/A   Clear
6:35 AM -4.0 °F -14.6 °F -4.0 °F 100% 29.84 in 10.0 mi WSW 4.6 mph - N/A   Clear
6:55 AM -7.6 °F -18.8 °F - N/A% 29.85 in 4.0 mi WSW 4.6 mph - N/A   Clear
7:15 AM -9.4 °F -18.6 °F - N/A% 29.86 in 10.0 mi SW 3.5 mph - N/A   Clear
7:35 AM -0.4 °F -12.0 °F -22.0 °F 36% 29.88 in 0.8 mi WSW 5.8 mph - N/A   Unknown
7:55 AM -0.4 °F -10.4 °F -27.4 °F 27% 29.89 in 10.0 mi WSW 4.6 mph - N/A   Clear
8:15 AM 1.4 °F -6.2 °F -9.4 °F 61% 29.90 in 10.0 mi WSW 3.5 mph - N/A   Clear
8:35 AM 3.2 °F -11.3 °F -9.4 °F 56% 29.91 in 10.0 mi West 9.2 mph - N/A   Clear
8:55 AM 6.8 °F -6.9 °F -5.8 °F 56% 29.93 in 10.0 mi West 9.2 mph - N/A   Clear
9:15 AM 6.8 °F -4.8 °F -5.8 °F 56% 29.93 in 9.0 mi West 6.9 mph - N/A   Clear
9:35 AM 8.6 °F -7.0 °F -5.8 °F 52% 29.94 in 10.0 mi West 12.7 mph - N/A   Clear
9:55 AM 8.6 °F -5.5 °F -5.8 °F 52% 29.95 in 10.0 mi West 10.4 mph - N/A   Clear
10:15 AM 10.4 °F -0.4 °F -2.2 °F 57% 29.94 in 1.8 mi West 6.9 mph - N/A   Scattered Clouds
10:35 AM 12.2 °F -0.2 °F -2.2 °F 53% 29.95 in 10.0 mi WNW 9.2 mph - N/A   Partly Cloudy
10:55 AM 14.0 °F 2.9 °F -4.0 °F 45% 29.95 in 10.0 mi WNW 8.1 mph - N/A   Clear
11:15 AM 15.8 °F 5.1 °F -4.0 °F 41% 29.96 in 10.0 mi West 8.1 mph - N/A   Clear
11:35 AM 15.8 °F 6.1 °F -2.2 °F 45% 29.96 in 10.0 mi West 6.9 mph - N/A   Clear
11:55 AM 17.6 °F 8.2 °F -2.2 °F 42% 29.95 in 10.0 mi West 6.9 mph - N/A   Clear
12:15 PM 17.6 °F 8.2 °F -2.2 °F 42% 29.95 in 10.0 mi West 6.9 mph - N/A   Clear
12:35 PM 19.4 °F - -0.4 °F 42% 29.94 in 10.0 mi Calm Calm - N/A   Clear
12:55 PM 19.4 °F 10.4 °F -0.4 °F 42% 29.94 in 10.0 mi West 6.9 mph - N/A   Clear
1:15 PM 21.2 °F 11.7 °F -0.4 °F 39% 29.94 in 10.0 mi WSW 8.1 mph - N/A   Clear
1:35 PM 21.2 °F 10.9 °F -0.4 °F 39% 29.94 in 10.0 mi SSW 9.2 mph - N/A   Clear
1:55 PM 21.2 °F 11.7 °F -0.4 °F 39% 29.92 in 10.0 mi SW 8.1 mph - N/A   Clear
2:15 PM 23.0 °F 12.4 °F -0.4 °F 36% 29.92 in 10.0 mi South 10.4 mph - N/A   Clear
2:35 PM 23.0 °F 14.7 °F 1.4 °F 39% 29.92 in 10.0 mi SW 6.9 mph - N/A   Clear
2:55 PM 24.8 °F 16.1 °F -0.4 °F 34% 29.91 in 10.0 mi SW 8.1 mph - N/A   Clear
3:15 PM 24.8 °F 15.3 °F 1.4 °F 36% 29.91 in 10.0 mi SSW 9.2 mph 17.3 mph N/A   Clear
3:35 PM 24.8 °F 13.4 °F 1.4 °F 36% 29.90 in 10.0 mi South 12.7 mph - N/A   Clear
3:55 PM 26.6 °F 17.5 °F -0.4 °F 31% 29.90 in 10.0 mi SSW 9.2 mph - N/A   Clear
4:15 PM 26.6 °F 19.1 °F 1.4 °F 34% 29.90 in 10.0 mi SSW 6.9 mph - N/A   Clear
4:35 PM 26.6 °F 16.8 °F 3.2 °F 37% 29.89 in 1.8 mi South 10.4 mph - N/A   Clear
4:55 PM 26.6 °F 17.5 °F 3.2 °F 37% 29.89 in 0.5 mi SSW 9.2 mph - N/A   Mostly Cloudy
5:15 PM 26.6 °F 17.5 °F 3.2 °F 37% 29.88 in 10.0 mi South 9.2 mph - N/A   Mostly Cloudy
5:35 PM 24.8 °F 13.4 °F 3.2 °F 40% 29.87 in 10.0 mi South 12.7 mph - N/A   Scattered Clouds
5:55 PM 24.8 °F 14.6 °F 3.2 °F 40% 29.86 in 10.0 mi South 10.4 mph - N/A   Clear
6:15 PM 24.8 °F 14.0 °F 3.2 °F 40% 29.85 in 10.0 mi South 11.5 mph - N/A   Partly Cloudy
6:35 PM 24.8 °F 14.0 °F 3.2 °F 40% 29.85 in 10.0 mi SSE 11.5 mph - N/A   Mostly Cloudy
6:55 PM 24.8 °F 15.3 °F 6.8 °F 46% 29.84 in 10.0 mi SSE 9.2 mph - N/A   Overcast
7:15 PM 24.8 °F 11.5 °F 8.6 °F 50% 29.83 in 10.0 mi South 17.3 mph - N/A   Overcast
7:35 PM 24.8 °F 13.4 °F 8.6 °F 50% 29.84 in 10.0 mi South 12.7 mph 18.4 mph N/A   Overcast
7:55 PM 23.0 °F 9.2 °F 10.4 °F 59% 29.84 in 8.0 mi South 17.3 mph 21.9 mph N/A   Overcast
8:15 PM 23.0 °F 11.1 °F 12.2 °F 63% 29.84 in 8.0 mi South 12.7 mph - N/A   Overcast
8:35 PM 21.2 °F 10.9 °F 14.0 °F 74% 29.84 in 4.0 mi South 9.2 mph - N/A   Overcast
8:55 PM 21.2 °F 8.9 °F 15.8 °F 80% 29.83 in 3.0 mi SSE 12.7 mph 16.1 mph N/A   Overcast
9:15 PM 21.2 °F 10.1 °F 15.8 °F 80% 29.82 in 8.0 mi SSE 10.4 mph - N/A   Overcast
9:35 PM 21.2 °F 8.3 °F 14.0 °F 74% 29.82 in 10.0 mi South 13.8 mph - N/A   Overcast
9:55 PM 21.2 °F 10.1 °F 12.2 °F 68% 29.81 in 10.0 mi South 10.4 mph 23.0 mph N/A   Overcast
10:15 PM 23.0 °F 11.7 °F 12.2 °F 63% 29.82 in 10.0 mi South 11.5 mph - N/A   Overcast
10:35 PM 23.0 °F 12.4 °F 12.2 °F 63% 29.82 in 10.0 mi South 10.4 mph - N/A   Overcast
10:55 PM 23.0 °F 13.1 °F 12.2 °F 63% 29.80 in 8.0 mi South 9.2 mph - N/A   Overcast
11:15 PM 24.8 °F 14.6 °F 14.0 °F 64% 29.81 in 5.0 mi South 10.4 mph - N/A   Overcast
11:35 PM 23.0 °F 12.4 °F 17.6 °F 80% 29.79 in 1.8 mi South 10.4 mph - N/A   Overcast
11:55 PM 24.8 °F 14.6 °F 17.6 °F 74% 29.78 in 5.0 mi South 10.4 mph - N/A   Overcast